Location: Arthez
(43.0833°N, 0.2500°W)
Time: 23:10:26
(UTC+00:00)

COSMOS 1408 DEB - Visible Passes

Search period start: 10 August 2022 00:00
Search period end: 20 August 2022 00:00
Orbit: 436 x 520 km, 83.2° (Epoch: 09 August)

Date Brightness Start Highest point End Pass type
(mag) Time Alt. Az. Time Alt. Az. Time Alt. Az.
10 Aug ? 19:51:42 10° SSW 19:55:23 44° W 19:59:05 10° N visible
12 Aug ? 20:36:33 10° WNW 20:37:07 10° WNW 20:37:40 10° WNW visible
13 Aug ? 20:07:31 10° WSW 20:10:03 17° WNW 20:12:34 10° NNW visible
14 Aug ? 19:39:41 10° SW 19:42:59 27° WNW 19:46:14 10° NNW visible
17 Aug ? 04:36:56 10° ENE 04:37:30 10° ENE 04:38:05 10° E visible
17 Aug ? 19:55:51 10° W 19:56:47 11° WNW 19:57:43 10° NW visible
18 Aug ? 19:26:44 10° WSW 19:29:21 18° WNW 19:31:57 10° NNW visible
